Regional Weather Roundup
Issued by NWS State College, PA

Home | Current Version | Previous Version | Text Only | Print | Product List | Glossary On
Versions: 1 2 3 4 5 6 7 8 9 10 11 12 13 14 15 16 17 18 19 20 21 22 23 24 25 26 27 28 29 30 31 32 33 34 35 36 37 38 39 40 41 42 43 44 45 46 47 48 49 50
000
ASUS41 KCTP 270203
RWRCTP

REGIONAL WEATHER ROUNDUP
NATIONAL WEATHER SERVICE STATE COLLEGE PA
1000 PM EDT TUE AUG 26 2014

Note: "fair" indicates few or no clouds below 12,000 feet with no
significant weather and/or obstructions to visibility.

* = STATION THAT DOES NOT REPORT PRECIPITATION /E.G. RAIN...SNOW...ETC/
    THUNDER OR FOG.

PAZ002>004-007>009-013>016-020>023-029>032-270300-
WESTERN PENNSYLVANIA

CITY           SKY/WX    TMP DP  RH WIND       PRES   REMARKS
ERIE           MOCLDY    77  68  73 S8        30.01F
MEADVILLE      PTCLDY    74  67  78 VRB3      30.08F
FRANKLIN*      PTCLDY    72  64  78 S6        30.13F
NEW CASTLE     FAIR      75  68  79 CALM      30.09F
BEAVER COUNTY  NOT AVBL
BUTLER*        CLEAR     70  64  83 S3        30.14F
PITTSBURGH INT PTCLDY    74  65  73 S3        30.12F
PITTSBURGH     CLEAR     74  61  63 S5        30.13R
INDIANA*       PTCLDY    68  63  83 CALM      30.18S
LATROBE        CLEAR     68  64  88 S3        30.15R
WASHINGTON CO* CLEAR     64  63  94 CALM      30.15S
$$

PAZ004>006-010>012-017>019-024>028-033>037-041-042-045-046-049>053-270300-
CENTRAL PENNSYLVANIA

CITY           SKY/WX    TMP DP  RH WIND       PRES   REMARKS
BRADFORD       CLEAR     69  63  81 CALM      30.15S
DUBOIS         CLEAR     67  62  84 SW5       30.14S
CLEARFIELD     CLEAR     65  63  93 CALM      30.15R
JOHNSTOWN      CLEAR     69  51  52 SW6       30.18S
ALTOONA        CLEAR     66  60  81 CALM      30.16S
STATE COLLEGE  PTCLDY    67  60  76 SW5       30.13S
WILLIAMSPORT   CLEAR     70  63  78 CALM      30.08F
SELINSGROVE    CLEAR     65  63  93 CALM      30.11S
FT INDIANTOWN  CLEAR     66  66 100 NE1       30.12S
CAPITAL CITY   LGT RAIN  71  62  73 W6        30.11S
HARRISBURG     CLEAR     73  64  73 CALM      30.10S
YORK           CLEAR     63  61  93 CALM      30.12S
$$

PAZ038>040-043-044-047-048-054-055-060>062-067>071-270300-
EASTERN PENNSYLVANIA

CITY           SKY/WX    TMP DP  RH WIND       PRES   REMARKS
SCRANTON       CLEAR     71  60  68 CALM      30.11F
MOUNT POCONO   CLEAR     63  58  83 W3        30.17S
ALLENTOWN      CLEAR     70  61  73 W3        30.11S
QUAKERTOWN*    PTCLDY    73  66  78 MISG      30.13S
READING        CLEAR     73  64  73 CALM      30.10S
LANCASTER      CLEAR     72  61  68 W3        30.11S
COATESVILLE    CLEAR     72  68  88 CALM      30.15R
POTTSTOWN      MOCLDY    75  64  68 S5        30.13S
BLUE BELL      CLEAR     75  68  78 CALM      30.12R
DOYLESTOWN     CLEAR     71  64  78 S5        30.12R
WILLOW GROVE   NOT AVBL
NORTH PHILA    PTCLDY    76  61  59 VRB5      30.13R
PHILADELPHIA   PTCLDY    75  65  70 SW9       30.13R
$$



USA.gov is the U.S. government's official web portal to all federal, state and local government web resources and services.